星链-30896 (STARLINK-30896 )

导读

STARLINK-30896是美国太空探索技术公司SpaceX发射的星链卫星,于2023年11月18日成功发射,属于星链星座的组成部分。星链项目计划在近地轨道部署数万颗卫星,为全球提供高速低延迟互联网服务,尤其覆盖偏远和基础设施匮乏地区。该卫星采用平板设计,搭载氪工质霍尔推进器,具备自主避撞能力,退役后会主动离轨在大气层烧毁,减少太空垃圾影响。

Basic Information
目录编号:
58353
目录名称:
STARLINK-30896
国际标识:
2023-177C
轨道中心:
EARTH
卫星名称:
星链-30896
卫星全名:
星链-30896 (STARLINK-30896 )
卫星状态:
在轨 (已飞行943 天)
发射日期:
2023-11-18 UTC
国别 :
美国 (US)
星等 :
--
Orbit Information
数据来源 国际轨道数据 AOE轨道数据
星历时间 2026-06-18T06:09:52+0800
12小时前
查看轨道信息
2026-06-17T07:00:00+0800
1天前
查看轨道信息
半长轴 6861.197km 6861.155km
偏心率 0.0001369 0.0002049
轨道倾角 43.005° 43.014°
近地点辐角 267.268° 258.404°
升交点赤经 2.738° 8.192°
平近点角 92.802° 187.651°
近地点 482.12km 481.612km
远地点 484km 484.424km
周期 94.267分钟 94.266分钟
每日圈数 15.275764 15.275907
Detailed Information
固有亮度:
5
最大亮度:
0.3
卫星平台:
Starlink v2.0 mini
覆盖范围:
全球
运营商:
太空探索技术公司
运营商所在国:
美国
制造商(研发单位):
太空探索技术公司
制造商所在国:
美国
使用方式:
暂无
Satellite Introduction
星链(Starlink)计划是由太空探索技术公司(SpaceX)提出的一个巨型低轨卫星互联网星座项目,计划在2019年至2024年间在太空搭建由约1.2万颗卫星组成的“星链”网络,其中1584颗将部署在地球上空550千米处的近地轨道,并从2020年开始工作。该卫星仍在工作。
2D Orbit Map
3D Orbit Map
Orbit Altitude Analysis Chart
Orbit Inclination Analysis Chart
Orbit Comprehensive Analysis Chart
View Comprehensive Chart